Location: *
(51.1248°S, 108.4023°W)
Time: 21:26:02
(UTC+00:00)

Cosmos 2278 Rocket - Pass Details

Date: 29 October 2021
Orbit: 841 x 845 km, 71.0° (Epoch: 30 November)

Event Time Altitude Azimuth Distance (km) Brightness Sun altitude
Rises 08:42:44 0° 259° (W) 3,424 5.2 -21.3°
Reaches altitude 10° 08:46:33 10° 233° (SW) 2,494 4.7 -21.1°
Maximum altitude 08:49:26 14° 203° (SSW) 2,227 4.8 -20.8°
Drops below altitude 10° 08:52:21 10° 172° (S) 2,500 5.6 -20.6°
Sets 08:56:12 0° 147° (SSE) 3,439 7.0 -20.3°
